Weather History for Cullman, AL

Change the Weather History Date:

Sunday, January 13, 2013

  Actual Average (KHSV) Record (KHSV)
Temperature  
Mean Temperature 54 °F 41 °F  
Max Temperature 68 °F 51 °F 76 °F (1972)
Min Temperature 39 °F 32 °F -8 °F (1918)
Degree Days  
Heating Degree Days 11 24  
Month to date heating degree days 312  
Since 1 July heating degree days 1493  
Cooling Degree Days 0 0  
Month to date cooling degree days 0  
Year to date cooling degree days 0  
Growing Degree Days 4 (Base 50)    
Moisture  
Dew Point 57 °F    
Average Humidity 94    
Maximum Humidity 99    
Minimum Humidity 79    
Precipitation  
Precipitation 1.27 in 0.16 in 1.56 in (1916)
Month to date precipitation 2.07  
Year to date precipitation 2.07  
Snow  
Snow 0.00 in - - ()
Month to date snowfall  
Since 1 July snowfall  
Snow Depth -    
Sea Level Pressure  
Sea Level Pressure 30.01 in    
Wind  
Wind Speed 12 mph (South)    
Max Wind Speed 17 mph    
Max Gust Speed 23 mph    
Visibility 7 miles    
Events Rain    
T = Trace of Precipitation, MM = Missing Value Source: NWS Daily Summary

Daily Weather History Graph

Daily Weather History Graph

Search for Another Location

Airport:

Trip Planner

Search our weather history database for the weather conditions in past years. The results will help you decide how hot, cold, wet, or windy it might be!

Date:

Astronomy

Jan. 13, 2013 Rise Set
Actual Time 6:53 AM CST 4:59 PM CST
Civil Twilight 6:26 AM CST 5:26 PM CST
Nautical Twilight 5:55 AM CST 5:57 PM CST
Astronomical Twilight 5:25 AM CST 6:27 PM CST
Moon 7:59 AM CST (1/13) 7:28 PM CST (1/13)
Length of Visible Light 11h 00m
Length of Day
10h 05m
Waxing Crescent, 5% of the Moon is Illuminated
Jan 13
Waxing Crescent
Jan 18
First Quarter
Jan 26
Full
Feb 3
Last Quarter
Feb 10
New

Hourly Weather History & Observations

Time (CST) Temp. Windchill Dew Point Humidity Pressure Visibility Wind Dir Wind Speed Gust Speed Precip Events Conditions
12:15 AM 63.3 °F - 56.8 °F 79% 29.96 in 10.0 mi South 15.0 mph 20.7 mph N/A   Clear
12:35 AM 62.8 °F - 56.8 °F 81% 29.96 in 10.0 mi South 13.8 mph - N/A   Clear
12:55 AM 62.6 °F - 56.7 °F 81% 29.96 in 10.0 mi South 12.7 mph 23.0 mph N/A   Clear
1:15 AM 62.1 °F - 56.7 °F 82% 29.95 in 10.0 mi South 15.0 mph - N/A   Clear
1:35 AM 61.7 °F - 56.8 °F 84% 29.95 in 10.0 mi South 17.3 mph 21.9 mph N/A   Clear
1:55 AM 61.7 °F - 57.4 °F 86% 29.96 in 10.0 mi South 15.0 mph 19.6 mph N/A   Mostly Cloudy
2:15 AM 61.9 °F - 58.1 °F 87% 29.95 in 10.0 mi South 15.0 mph 20.7 mph N/A   Overcast
2:55 AM 61.9 °F - 59.0 °F 90% 29.94 in 10.0 mi South 16.1 mph 20.7 mph N/A   Overcast
3:15 AM 62.1 °F - 59.4 °F 91% 29.95 in 10.0 mi South 13.8 mph 23.0 mph N/A   Overcast
3:35 AM 61.9 °F - 59.9 °F 93% 29.94 in 7.0 mi South 12.7 mph - N/A   Overcast
3:55 AM 61.9 °F - 60.3 °F 94% 29.94 in 10.0 mi South 13.8 mph 19.6 mph N/A   Overcast
4:15 AM 62.2 °F - 60.4 °F 94% 29.96 in 10.0 mi South 11.5 mph 23.0 mph N/A   Overcast
4:35 AM 62.4 °F - 60.8 °F 94% 29.96 in 7.0 mi South 9.2 mph - N/A Rain Light Rain
4:55 AM 62.2 °F - 61.2 °F 96% 29.98 in 4.0 mi South 8.1 mph - 0.01 in   Drizzle
5:15 AM 62.2 °F - 61.3 °F 97% 29.99 in 3.0 mi South 9.2 mph - 0.01 in Rain Rain
5:35 AM 62.2 °F - 61.7 °F 98% 30.00 in 5.0 mi South 6.9 mph - 0.02 in   Drizzle
5:55 AM 62.2 °F - 61.7 °F 98% 30.01 in 4.0 mi South 8.1 mph - 0.04 in   Drizzle
6:15 AM 62.4 °F - 61.7 °F 97% 30.01 in 5.0 mi South 5.8 mph - N/A   Drizzle
6:35 AM 62.6 °F - 61.9 °F 97% 30.01 in 5.0 mi SSE 8.1 mph - 0.01 in   Drizzle
6:55 AM 62.6 °F - 62.1 °F 98% 30.01 in 5.0 mi SSE 6.9 mph - 0.01 in   Drizzle
7:15 AM 62.6 °F - 62.1 °F 98% 30.01 in 5.0 mi SSE 6.9 mph - 0.01 in   Drizzle
7:35 AM 62.6 °F - 62.1 °F 98% 30.01 in 4.0 mi SSE 8.1 mph - 0.02 in   Drizzle
7:55 AM 62.8 °F - 62.1 °F 97% 30.01 in 3.0 mi SSE 5.8 mph - 0.05 in Rain Rain
8:15 AM 62.8 °F - 62.2 °F 98% 30.02 in 3.0 mi SSE 8.1 mph - 0.01 in Rain Rain
8:35 AM 62.8 °F - 62.4 °F 99% 30.02 in 3.0 mi South 8.1 mph - 0.02 in   Heavy Drizzle
8:55 AM 63.0 °F - 62.6 °F 99% 30.02 in 5.0 mi SSE 6.9 mph - 0.02 in   Light Drizzle
9:15 AM 63.1 °F - 62.6 °F 98% 30.03 in 5.0 mi SSE 9.2 mph - 0.01 in   Overcast
9:35 AM 63.5 °F - 62.6 °F 97% 30.03 in 5.0 mi SSE 9.2 mph - 0.01 in   Overcast
9:55 AM 63.5 °F - 62.6 °F 97% 30.02 in 5.0 mi SSE 8.1 mph - 0.01 in Rain Light Rain
10:15 AM 63.5 °F - 62.6 °F 97% 30.02 in 5.0 mi SSE 10.4 mph - N/A Rain Light Rain
10:35 AM 63.7 °F - 62.8 °F 97% 30.02 in 7.0 mi South 11.5 mph - 0.03 in Rain Light Rain
10:55 AM 64.2 °F - 63.3 °F 97% 30.00 in 7.0 mi South 13.8 mph 19.6 mph 0.03 in   Overcast
11:35 AM 64.8 °F - 63.5 °F 96% 29.99 in 7.0 mi South 10.4 mph 18.4 mph N/A   Overcast
11:55 AM 65.1 °F - 63.9 °F 96% 29.98 in 7.0 mi South 10.4 mph - N/A   Overcast
12:15 PM 65.8 °F - 64.0 °F 94% 29.97 in 7.0 mi South 12.7 mph 19.6 mph N/A   Scattered Clouds
12:35 PM 66.4 °F - 64.0 °F 92% 29.96 in 10.0 mi South 12.7 mph - N/A   Scattered Clouds
12:55 PM 66.7 °F - 64.2 °F 92% 29.94 in 10.0 mi SSE 11.5 mph 17.3 mph N/A   Scattered Clouds
1:15 PM 67.5 °F - 64.2 °F 89% 29.94 in 10.0 mi South 11.5 mph 17.3 mph N/A   Clear
1:35 PM 68.0 °F - 64.0 °F 87% 29.94 in 10.0 mi SSE 10.4 mph 18.4 mph N/A   Scattered Clouds
1:55 PM 68.2 °F - 63.9 °F 86% 29.93 in 10.0 mi SSE 8.1 mph 17.3 mph N/A   Mostly Cloudy
2:15 PM 67.6 °F - 63.5 °F 87% 29.94 in 10.0 mi SSE 11.5 mph - N/A   Mostly Cloudy
2:35 PM 67.1 °F - 63.5 °F 88% 29.94 in 7.0 mi SSE 13.8 mph 20.7 mph N/A Rain Rain
2:55 PM 65.8 °F - 63.7 °F 93% 29.94 in 4.0 mi SSE 11.5 mph 17.3 mph 0.04 in Rain Rain
3:15 PM 65.3 °F - 63.9 °F 95% 29.94 in 3.0 mi SSE 12.7 mph 19.6 mph 0.05 in Rain Rain
3:35 PM 65.3 °F - 63.7 °F 94% 29.94 in 7.0 mi SSE 8.1 mph 16.1 mph 0.05 in Rain Rain
4:15 PM 65.3 °F - 63.5 °F 94% 29.95 in 10.0 mi SSE 8.1 mph - N/A   Overcast
4:35 PM 64.8 °F - 63.5 °F 96% 29.96 in 4.0 mi South 4.6 mph - 0.05 in Rain Heavy Rain
4:55 PM 64.4 °F - 63.5 °F 97% 29.96 in 2.5 mi SSW 5.8 mph - 0.18 in Rain Heavy Rain
5:15 PM 64.4 °F - 63.5 °F 97% 29.98 in 3.0 mi WSW 9.2 mph - 0.12 in Rain Heavy Rain
5:35 PM 62.4 °F - 61.3 °F 96% 30.02 in 2.5 mi WNW 9.2 mph 16.1 mph 0.49 in Rain Heavy Rain
5:55 PM 59.9 °F - 58.8 °F 96% 30.03 in 5.0 mi NW 10.4 mph 17.3 mph 0.65 in Rain Heavy Rain
6:15 PM 56.3 °F - 55.4 °F 97% 30.05 in 5.0 mi NW 9.2 mph - 0.06 in Rain Heavy Rain
6:35 PM 53.1 °F - 51.8 °F 95% 30.07 in 10.0 mi NW 10.4 mph 19.6 mph 0.10 in Rain Rain
6:55 PM 50.5 °F - 49.5 °F 96% 30.06 in 10.0 mi NW 6.9 mph - 0.11 in Rain Light Rain
7:15 PM 49.5 °F - 48.6 °F 97% 30.07 in 10.0 mi NNW 9.2 mph - 0.01 in   Overcast
7:35 PM 48.9 °F - 48.0 °F 97% 30.08 in 10.0 mi NNW 9.2 mph 17.3 mph 0.01 in Rain Light Rain
7:55 PM 47.7 °F - 47.1 °F 98% 30.08 in 10.0 mi NNW 9.2 mph 19.6 mph 0.01 in   Drizzle
8:15 PM 46.6 °F - 46.0 °F 98% 30.09 in 10.0 mi NNW 11.5 mph - 0.01 in Rain Light Rain
8:35 PM 45.7 °F 41.0 °F 45.0 °F 97% 30.09 in 10.0 mi NNW 9.2 mph 18.4 mph 0.01 in Rain Rain
8:55 PM 44.8 °F 39.9 °F 44.1 °F 97% 30.10 in 10.0 mi NNW 9.2 mph - 0.01 in Rain Light Rain
9:15 PM 43.9 °F 36.8 °F 43.0 °F 97% 30.11 in 10.0 mi NNW 15.0 mph 19.6 mph N/A   Overcast
9:35 PM 43.0 °F 37.2 °F 42.1 °F 97% 30.11 in 10.0 mi North 10.4 mph 16.1 mph N/A   Overcast
9:55 PM 42.3 °F 35.9 °F 41.2 °F 96% 30.12 in 10.0 mi NNW 11.5 mph 17.3 mph N/A   Overcast
10:15 PM 41.7 °F 34.4 °F 40.6 °F 96% 30.13 in 10.0 mi North 13.8 mph 20.7 mph N/A   Light Drizzle
10:35 PM 40.8 °F 34.5 °F 39.7 °F 96% 30.13 in 10.0 mi North 10.4 mph 17.3 mph 0.01 in Rain Light Rain
10:55 PM 40.5 °F 34.1 °F 39.7 °F 97% 30.13 in 7.0 mi North 10.4 mph 18.4 mph 0.03 in Rain Light Rain
11:15 PM 40.3 °F 32.6 °F 39.2 °F 96% 30.14 in 7.0 mi North 13.8 mph - 0.01 in Rain Heavy Rain
11:35 PM 40.1 °F 33.2 °F 38.7 °F 95% 30.13 in 7.0 mi North 11.5 mph 18.4 mph 0.02 in Rain Rain
11:55 PM 39.6 °F 33.0 °F 38.3 °F 95% 30.14 in 10.0 mi North 10.4 mph - 0.02 in   Light Drizzle